Theta_e
308 303 301 301 311 311 307 310 310 305 305 305 305 308 315 318 316 318 322 319 321 325 326 325 325 331 331 329 329 326 317 323 325 326 325 325 322 326 327 330 329 332 332 330 332
310 306 302 301 305 312 312 312 313 307 304 304 304 305 311 316 317 317 317 321 323 324 326 326 327 331 331 329 328 318 319 322 323 324 323 321 321 324 329 329 331 331 332 332 332
309 310 305 302 302 308 310 311 312 310 304 304 303 305 309 313 315 314 314 317 322 324 327 328 325 329 329 326 324 318 321 319 319 321 321 322 320 323 327 326 329 329 331 332 332
308 309 310 303 302 303 309 311 312 309 304 305 305 306 307 312 305 320 319 315 320 326 325 323 325 329 325 325 324 325 324 325 323 323 321 321 321 323 327 329 330 329 329 330 331
310 307 309 306 303 302 307 311 312 311 306 305 306 307 308 314 311 322 320 318 322 325 325 323 324 327 325 324 323 324 324 325 325 325 325 322 321 316 323 326 328 329 330 330 330
310 308 309 308 304 302 307 304 309 310 308 306 307 309 311 313 309 311 319 319 323 321 320 320 323 324 326 324 323 324 324 324 324 325 324 322 320 317 319 324 325 328 329 330 329
309 309 308 308 306 303 301 302 303 304 307 307 307 309 312 310 310 311 310 316 322 321 319 321 322 325 325 321 323 324 325 323 323 324 323 321 324 315 317 320 325 326 329 329 328
309 309 308 309 307 304 302 301 302 305 310 308 308 311 311 310 310 316 316 316 321 322 319 319 321 324 323 322 322 323 323 326 323 323 322 322 326 319 318 317 325 326 329 330 329
311 309 309 309 308 306 303 301 302 305 308 308 311 310 311 311 310 308 316 318 321 322 319 320 320 323 322 324 325 324 328 325 324 323 319 320 323 321 318 317 322 327 328 329 330
312 310 309 309 308 306 304 302 304 307 308 310 311 311 310 312 311 310 310 313 319 320 321 321 321 323 323 324 327 327 328 323 326 323 323 320 321 320 321 318 319 327 328 329 330
313 311 309 310 308 306 305 305 309 308 309 308 309 310 313 312 312 313 316 317 317 317 320 320 321 324 324 323 324 324 324 326 324 324 325 325 324 324 323 317 313 316 327 329 329
314 313 310 309 309 306 304 306 306 306 307 308 309 311 312 312 313 315 313 316 316 316 316 318 321 318 321 322 322 322 325 326 324 324 326 326 325 325 324 321 315 314 318 326 327
314 313 311 308 309 307 304 304 306 306 305 307 308 310 312 311 312 313 316 315 316 317 316 316 318 317 320 321 322 325 325 325 327 322 325 324 325 324 320 321 322 317 316 320 323
311 313 312 308 309 306 305 304 306 306 295 302 307 307 310 310 310 312 313 314 314 316 316 318 316 316 319 321 321 324 324 325 325 326 329 325 330 327 325 321 319 318 316 318 322
310 310 309 309 309 307 305 305 305 304 293 299 307 306 307 308 306 311 313 315 314 315 315 316 316 316 318 321 319 322 321 322 325 327 327 326 329 326 325 325 322 318 316 317 318
307 309 312 310 308 306 304 305 304 293 292 302 309 308 309 308 310 311 313 314 313 314 312 312 310 313 316 317 319 319 320 319 320 325 329 327 328 327 326 326 325 323 320 319 318
307 308 311 309 308 306 305 305 301 293 297 308 307 309 307 308 310 311 313 312 312 314 313 308 310 308 311 318 315 321 323 324 325 323 328 323 326 326 323 322 323 324 325 321 321
306 306 306 307 308 305 305 302 297 293 297 305 307 307 307 307 307 310 310 312 311 312 313 314 315 310 311 317 319 320 322 324 325 323 321 316 327 325 321 322 322 322 323 325 320
303 303 304 308 307 305 305 303 300 298 302 308 309 307 308 309 308 307 308 310 311 310 314 316 316 309 310 311 316 319 322 319 318 308 316 313 313 311 315 314 319 320 320 320 321
303 303 303 306 306 304 304 302 299 299 305 307 305 308 308 310 311 309 309 309 309 311 312 314 315 310 311 311 310 314 315 320 318 322 324 319 315 320 316 315 312 311 313 316 322
303 301 303 305 304 303 304 301 301 303 306 304 303 303 304 310 311 312 313 311 309 309 310 313 313 310 310 311 313 314 315 318 317 318 322 319 317 309 316 315 314 313 314 316 320
299 302 302 305 303 302 303 300 305 304 304 303 302 304 306 308 310 310 312 310 310 310 311 312 314 310 312 310 310 316 316 317 322 320 315 311 316 306 306 305 306 310 312 314 314
300 300 301 304 305 304 303 302 304 303 303 302 304 304 305 308 308 309 310 310 310 311 313 313 313 314 313 311 309 311 313 316 316 313 319 317 319 306 305 305 307 308 311 312 313
300 302 303 303 304 303 303 302 302 302 302 300 302 303 304 305 305 307 308 307 309 311 312 313 314 314 313 311 311 314 315 314 317 319 320 318 318 311 306 307 306 308 309 309 310
299 301 301 303 303 303 302 302 303 303 302 302 302 303 302 302 305 305 306 305 306 309 310 311 311 312 312 310 311 313 314 315 316 317 319 319 317 316 307 305 306 309 308 307 308
299 300 300 301 302 303 303 302 303 302 302 302 302 303 301 301 301 304 304 305 306 307 311 308 310 309 312 314 311 312 313 314 314 316 318 316 312 312 312 307 306 308 308 308 309
299 300 303 303 303 303 303 302 302 301 302 302 302 303 303 302 303 303 306 306 306 305 306 306 309 311 315 311 312 313 312 313 313 314 316 317 315 309 307 303 304 307 307 309 310
Wind_Speed
24 25 26 25 21 20 21 17 18 16 16 15 16 16 14 12 11 13 17 16 21 13 6 12 13 14 12 10 13 5 3 3 3 4 5 9 5 1 8 16 8 14 11 7 31
25 24 25 26 24 21 19 19 18 17 17 15 14 13 13 12 11 15 19 17 19 20 19 13 12 13 9 7 7 8 2 3 8 4 6 17 13 15 6 12 4 12 15 16 33
28 25 24 25 25 23 20 20 20 17 16 14 12 11 12 11 10 14 17 17 21 16 17 17 13 15 10 6 8 11 6 4 10 20 21 19 19 10 8 4 12 24 23 26 35
32 28 26 26 26 25 22 21 20 20 16 13 12 11 12 8 5 1 6 19 23 21 17 17 15 11 6 5 8 4 16 14 14 16 19 17 24 14 15 16 23 23 27 32 38
35 32 29 27 26 25 24 24 21 18 16 14 11 12 12 9 13 5 7 10 25 24 24 22 19 12 6 8 10 5 8 13 22 15 25 22 22 23 17 22 12 20 28 33 36
39 34 32 29 27 26 24 25 25 19 17 15 13 12 14 9 10 17 6 2 22 26 26 23 14 17 8 9 10 9 18 20 19 17 11 13 21 13 22 22 16 20 30 34 36
41 38 36 32 28 25 25 23 21 20 18 15 15 16 17 20 7 10 17 13 19 25 24 24 20 17 9 4 10 5 6 8 16 14 10 2 16 9 26 21 26 24 31 35 35
44 40 38 35 31 27 25 23 21 21 18 15 16 15 10 9 19 10 10 14 13 20 23 22 22 19 8 9 4 6 3 8 6 13 5 11 20 21 23 22 25 29 33 37 39
47 44 40 38 34 29 26 23 22 20 17 16 16 11 7 8 18 22 11 10 14 21 25 19 21 15 9 5 3 6 11 7 2 15 8 6 8 24 18 26 30 33 35 40 41
50 47 43 41 37 32 27 23 20 19 18 17 10 7 15 11 11 20 21 21 14 15 18 19 15 6 7 10 16 12 12 6 11 10 9 8 13 15 33 24 27 35 38 41 42
53 51 48 44 41 36 31 29 20 11 27 13 16 6 3 13 11 14 19 21 15 15 9 7 7 17 20 22 12 14 11 18 9 9 7 16 17 19 28 26 27 28 31 43 45
59 56 54 48 45 40 40 38 36 10 12 19 5 12 11 16 7 12 22 18 14 12 10 4 23 19 8 9 18 20 14 13 3 10 10 11 18 21 24 29 27 28 33 42 49
59 66 61 54 49 45 49 44 34 20 7 15 22 23 14 11 7 17 23 20 6 9 15 19 7 14 14 16 14 15 26 11 5 1 8 3 9 18 13 29 38 36 35 43 51
45 55 64 59 54 53 52 43 35 14 5 4 13 15 20 10 5 16 25 15 9 10 18 14 22 18 11 17 15 19 12 14 11 7 5 7 10 18 14 21 23 33 35 41 47
45 27 65 67 59 61 57 40 36 14 2 8 9 13 24 19 11 17 23 24 8 8 6 7 7 13 21 16 15 14 14 15 10 7 2 6 7 11 14 18 21 24 33 43 47
45 28 76 70 56 54 51 40 36 6 7 5 10 12 14 17 7 13 21 13 9 5 5 6 3 5 17 7 2 7 4 4 3 7 11 16 12 19 16 13 16 22 36 46 50
47 35 65 67 60 61 57 49 6 6 3 10 9 17 16 13 8 11 15 17 12 10 14 2 4 4 5 13 1 8 7 4 5 4 9 10 11 25 5 11 20 23 38 43 53
52 41 26 72 60 71 56 14 6 7 8 2 11 21 17 16 16 14 14 14 22 11 5 10 8 9 5 7 9 18 12 3 4 4 3 4 14 8 13 27 35 31 34 38 43
39 42 31 57 71 76 48 16 14 11 10 15 17 21 8 12 9 12 8 15 16 20 11 10 10 3 4 2 5 6 13 6 3 3 2 5 8 7 10 9 15 27 31 33 44
30 34 32 49 71 69 22 16 7 8 15 17 7 10 10 20 7 17 17 12 18 17 19 6 3 5 5 2 1 5 9 4 3 6 11 7 7 11 6 12 15 13 24 29 39
30 14 19 70 71 48 23 12 6 16 24 8 6 6 8 14 13 12 15 3 20 18 22 5 3 3 4 7 9 5 3 4 2 4 5 2 7 6 15 12 14 18 29 30 27
15 4 35 61 17 13 18 10 9 16 7 6 6 5 12 15 14 11 12 7 18 21 20 18 4 5 9 1 5 13 7 6 5 5 4 3 9 5 5 5 9 16 25 25 20
18 9 52 50 14 15 14 4 6 12 8 5 5 3 3 10 10 14 7 8 13 17 13 16 6 4 6 1 2 6 7 13 5 3 15 6 10 3 3 4 8 16 23 24 23
12 5 20 30 21 31 22 10 7 11 4 5 6 6 7 4 1 10 7 5 6 11 25 18 9 12 17 11 7 12 20 22 22 12 21 21 16 7 5 5 3 7 15 16 19
6 4 8 12 12 21 21 14 19 9 5 9 3 7 9 5 6 6 5 3 5 8 7 8 3 7 15 6 14 17 23 24 23 29 17 34 21 19 8 8 9 16 14 15 17
4 3 6 7 29 22 21 18 23 6 7 6 12 12 6 7 7 7 8 6 5 4 5 9 6 8 13 24 15 14 25 26 27 30 27 16 12 11 17 12 11 18 20 16 16
18 10 30 15 22 18 20 19 22 12 6 12 17 7 7 8 9 8 6 7 6 6 4 4 1 2 7 8 12 6 25 26 25 28 31 18 22 5 7 10 17 25 26 20 17
Wind_Direction
248 241 237 234 228 226 225 225 228 227 230 233 236 231 231 236 236 217 219 225 227 218 209 233 230 235 230 208 189 222 316 265 242 180 257 312 325 205 192 153 175 186 184 203 177
241 242 238 235 226 222 218 219 226 226 225 229 234 231 228 237 253 244 230 213 221 224 230 232 212 205 204 163 156 109 281 246 306 300 347 329 306 251 167 156 159 176 179 171 178
234 236 240 238 230 225 220 219 226 231 225 221 225 224 221 228 261 264 253 227 217 223 219 226 224 215 214 189 171 146 177 315 315 350 343 326 312 270 182 245 193 185 177 176 182
233 231 234 234 232 225 214 211 225 228 223 220 216 214 210 202 200 56 224 202 211 209 203 202 199 183 155 176 183 183 202 219 271 311 330 318 312 291 208 216 218 210 194 182 186
229 229 227 229 229 226 214 208 213 225 222 214 209 208 199 196 222 160 48 199 192 206 212 206 196 179 176 178 157 212 204 204 235 275 294 302 299 279 271 237 221 215 198 194 195
226 225 225 223 223 223 218 214 212 219 216 209 208 202 206 215 252 226 211 299 200 197 203 209 209 210 201 183 187 209 224 214 216 225 268 282 294 301 272 255 226 211 206 203 203
226 223 221 221 218 218 221 217 211 213 213 205 208 209 214 230 214 221 234 232 204 205 206 215 219 206 194 143 204 177 184 233 233 206 198 272 276 224 264 267 224 217 215 208 211
225 222 217 216 214 214 216 213 203 204 207 202 210 211 235 235 216 198 194 215 204 207 206 221 218 221 198 143 140 165 165 218 205 189 200 128 266 279 276 261 229 221 219 213 214
224 219 216 211 211 209 207 203 201 202 204 200 196 198 234 206 214 208 202 208 206 211 206 209 208 211 152 191 194 218 226 214 232 184 154 148 249 258 277 255 235 225 222 221 219
222 217 214 209 206 205 198 192 188 190 186 182 192 194 230 206 200 207 209 224 210 217 221 221 209 208 195 197 217 209 220 204 214 194 207 172 241 260 267 271 242 225 225 221 220
222 216 212 206 203 198 186 172 164 178 180 186 190 206 254 180 174 196 191 202 200 208 208 210 264 213 205 209 226 228 210 225 202 179 198 216 231 240 251 257 247 239 231 220 223
220 217 210 203 199 193 187 180 183 190 187 204 186 191 139 165 144 187 197 193 191 210 211 188 233 224 231 221 235 256 220 218 229 188 204 228 232 239 244 242 247 242 231 228 230
215 218 208 197 193 190 191 189 177 146 139 213 207 199 171 182 174 192 191 196 203 200 205 225 183 216 240 237 240 249 235 215 192 106 239 333 263 258 246 242 247 248 242 233 230
217 203 204 194 186 188 191 181 172 160 75 234 191 227 202 160 250 201 202 189 207 215 206 234 235 247 224 229 223 251 233 237 195 172 224 166 274 253 240 234 237 234 233 230 227
213 208 202 191 177 184 184 172 177 142 132 209 173 196 191 181 143 202 204 203 194 171 169 206 186 208 228 237 216 243 224 249 253 253 288 216 261 275 211 231 238 232 230 233 234
219 219 190 184 177 179 170 163 149 72 237 183 146 166 156 188 175 146 183 193 206 177 245 252 331 247 220 190 180 175 102 31 126 229 235 224 223 263 238 228 245 236 229 228 231
210 194 184 179 173 174 158 152 120 154 244 172 175 174 168 172 171 169 180 192 193 194 226 102 222 300 263 192 113 219 152 209 234 205 240 184 214 241 246 225 235 235 234 227 225
207 210 218 184 170 168 163 151 125 175 193 156 156 163 180 153 205 181 175 199 211 218 181 206 224 183 207 192 201 210 202 186 222 192 203 203 230 253 214 236 247 248 241 241 227
212 213 218 176 168 166 162 173 187 173 160 158 139 164 169 184 158 188 210 208 204 210 210 190 225 194 267 115 155 166 207 226 81 55 339 226 281 273 246 237 241 251 249 243 227
191 196 209 183 166 163 165 177 148 168 132 146 145 174 166 182 152 176 178 212 218 194 216 218 215 230 143 99 74 225 148 147 170 204 232 247 264 240 297 239 224 232 227 243 230
189 155 204 170 163 169 172 180 132 164 141 138 148 127 169 172 181 186 186 223 198 190 206 239 181 132 122 205 170 169 213 174 148 218 217 248 253 224 231 229 227 225 218 230 230
167 136 173 169 163 175 180 148 127 154 136 109 106 111 168 162 174 192 197 192 198 172 200 204 206 188 196 50 270 217 207 190 201 203 256 285 263 212 250 280 270 265 238 221 218
154 137 174 178 170 166 173 121 105 152 147 137 120 160 101 160 182 201 194 213 245 182 190 190 198 173 154 291 222 219 202 210 256 41 218 205 262 259 240 329 309 251 237 218 217
162 145 171 191 191 156 166 157 123 138 83 101 113 99 112 144 264 171 166 238 228 219 200 179 206 220 223 229 145 209 206 209 205 215 229 227 239 282 247 243 268 261 224 207 203
212 165 163 163 172 154 167 154 146 150 120 150 51 158 144 134 145 160 168 219 228 200 172 176 265 239 257 281 192 204 203 201 214 230 219 239 233 237 245 227 227 214 233 212 209
215 151 174 129 148 149 174 178 167 114 155 172 140 158 153 134 161 179 163 186 191 77 182 179 237 233 257 234 218 204 207 197 206 232 238 248 271 237 232 230 197 220 198 209 211
219 179 151 147 161 156 182 175 169 127 35 131 139 131 169 170 160 133 166 156 154 143 150 160 143 268 252 182 185 224 206 199 213 225 226 230 232 214 213 207 208 201 200 203 205